Temperature
14 14 13 13 13 13 13 12 12 12 12 12 12 12 12 12 12 11 12 11 11 11 11 12 12 12 11 11 11 11 11 11 11 11 11 11 11 11 11 11 11 12 12
14 13 13 13 13 13 12 12 12 12 12 12 12 12 12 12 11 11 11 11 11 11 11 11 11 11 11 11 11 11 11 11 11 11 11 11 11 11 11 11 11 11 11
13 13 13 13 13 12 12 12 12 12 12 12 11 11 11 11 11 11 11 11 11 11 11 11 11 11 11 11 11 11 11 11 11 11 11 11 11 11 11 11 11 11 11
13 13 13 13 12 12 12 12 12 12 11 11 11 11 11 11 11 11 11 11 11 11 11 11 11 11 11 11 11 11 11 11 11 11 11 11 10 10 10 10 11 11 11
13 13 13 12 12 12 12 12 12 11 11 11 11 11 11 11 11 11 11 11 11 11 11 10 11 11 10 11 11 11 11 10 10 10 10 10 10 10 10 10 10 10 11
13 13 12 12 12 12 12 11 11 11 11 11 11 11 11 11 11 10 10 10 10 10 10 10 10 10 10 10 10 10 10 10 10 10 10 10 10 10 10 10 10 10 10
13 12 12 12 12 11 11 11 11 11 11 10 10 10 10 10 10 10 10 10 10 10 10 10 10 10 10 10 10 10 10 10 10 10 10 10 10 10 10 10 10 10 10
12 12 12 12 11 11 11 11 11 10 10 10 10 10 10 10 10 10 10 10 10 10 9 9 9 9 9 10 10 10 10 10 9 9 9 9 9 9 9 9 9 9 9
12 12 11 11 11 11 11 10 10 10 10 10 9 9 9 9 9 10 10 9 9 9 9 9 9 9 9 9 9 9 9 9 9 9 9 9 9 9 9 9 9 9 8
12 11 11 11 11 11 10 10 10 10 9 9 9 9 9 9 9 9 9 9 9 9 9 9 8 8 9 9 9 9 9 9 9 9 9 8 8 8 8 8 8 8 8
11 11 11 10 10 10 10 9 9 9 9 9 9 9 8 9 8 8 8 8 8 8 8 8 8 8 8 8 8 8 8 8 8 8 8 8 8 8 8 8 8 8 8
10 10 10 10 10 9 9 9 9 8 8 8 8 8 8 8 8 8 8 8 8 8 8 8 8 8 7 8 7 7 7 7 7 7 7 8 8 8 8 8 8 8 8
10 10 10 9 9 9 8 8 8 8 8 8 8 8 8 8 8 8 8 8 7 7 7 7 7 7 7 7 7 7 7 7 7 7 7 7 7 7 7 7 7 7 7
10 9 9 9 9 8 8 8 8 8 8 7 7 7 7 7 7 7 7 7 7 7 7 7 7 6 6 6 6 6 6 6 6 6 6 7 7 7 7 7 7 7 7
9 9 9 8 8 8 7 7 7 7 7 7 7 7 7 7 7 7 7 7 7 6 6 6 6 6 6 6 6 6 6 6 6 6 6 6 6 6 6 6 6 6 6
9 8 8 8 8 7 7 7 7 7 7 6 6 6 6 6 6 6 6 6 6 6 6 6 5 5 5 5 5 5 5 5 5 5 5 5 5 5 5 5 5 6 6
8 8 8 7 7 7 7 6 6 6 6 6 6 6 6 6 6 6 6 6 5 5 5 5 5 5 5 5 5 5 4 4 4 5 5 5 5 5 5 5 5 5 5
8 7 7 7 7 6 6 6 6 6 5 5 5 5 5 5 5 5 5 5 5 5 4 4 4 4 4 4 4 4 4 4 4 4 4 4 4 4 4 4 4 4 4
7 7 6 6 6 6 6 5 5 5 5 5 5 5 5 5 5 4 4 4 4 4 4 4 4 4 4 4 4 4 4 4 3 3 3 4 4 4 4 4 4 4 4
6 6 6 6 5 5 5 5 5 5 5 5 4 4 4 4 4 4 4 4 4 4 3 3 3 3 3 3 3 3 3 3 3 3 3 3 3 3 3 3 3 3 3
6 6 6 5 5 5 5 4 4 4 4 4 4 4 4 3 3 3 3 3 3 3 3 3 3 3 3 3 3 3 3 3 3 2 2 2 2 2 2 2 2 2 2
6 5 5 5 5 4 4 4 4 4 4 4 3 3 3 3 3 3 3 3 3 3 2 2 2 2 2 2 2 2 2 2 2 2 2 2 2 2 2 2 2 2 2
5 5 5 4 4 4 4 4 3 3 3 3 3 3 3 3 3 2 2 2 2 2 2 2 2 2 2 2 2 2 2 2 2 2 2 2 2 1 1 1 1 1 2
5 4 4 4 4 3 3 3 3 3 3 3 3 2 2 2 2 2 2 1 1 1 1 1 1 1 1 1 1 1 1 1 1 1 1 1 1 1 1 1 1 1 1
4 4 4 3 3 3 3 3 3 2 2 2 2 2 2 2 2 1 1 1 1 1 1 1 1 1 1 1 1 1 1 1 1 1 1 1 1 1 1 1 0 0 0
4 4 3 3 3 2 2 2 2 2 2 2 2 1 1 1 1 1 1 1 0 0 0 0 0 0 0 0 0 0 0 0 0 0 0 0 0 0 -0 -0 -0 -0 -0
Wind_Speed
6 5 4 4 4 4 4 4 4 3 3 3 3 3 3 3 3 2 2 2 2 2 1 1 2 2 1 1 1 1 1 2 2 3 2 2 2 2 2 3 5 4 5
6 6 5 4 4 4 4 4 4 4 4 3 3 3 3 2 3 3 4 3 3 3 3 2 2 1 1 1 1 1 2 2 3 3 2 2 3 3 2 3 3 4 5
6 5 5 4 5 5 5 5 4 4 4 3 3 3 3 3 3 4 4 4 4 4 3 3 3 2 2 1 1 2 1 1 1 2 3 2 2 2 1 2 2 2 4
5 6 5 5 6 5 4 4 4 4 4 3 4 4 4 4 4 4 3 3 3 3 2 3 3 3 3 3 2 2 2 1 1 1 2 2 2 1 0 1 2 2 3
5 5 6 5 5 4 4 4 3 3 4 4 4 3 3 3 3 3 3 3 3 2 2 3 3 3 4 3 2 2 2 2 1 1 2 2 2 1 2 2 2 2 2
5 6 5 5 4 4 4 4 3 3 3 3 3 3 3 3 4 4 3 3 3 3 3 3 3 3 4 4 4 3 3 3 3 2 2 3 4 4 3 2 2 1 2
5 5 5 5 5 4 4 3 3 3 2 3 3 3 3 4 3 4 4 3 3 3 4 3 3 3 3 3 4 5 4 4 4 4 4 5 5 5 4 3 3 3 4
3 4 4 4 4 4 3 3 3 2 2 3 3 3 3 3 3 3 4 3 3 3 4 4 3 4 3 2 2 2 3 4 5 4 4 5 5 5 5 5 4 3 2
3 3 4 4 4 3 4 4 3 3 3 3 2 2 3 3 3 2 2 2 2 3 3 3 3 4 4 2 2 2 3 4 5 5 5 4 4 4 3 2 2 2 2
4 4 4 4 4 4 4 4 3 3 3 2 2 2 2 3 3 2 2 2 2 2 2 3 4 3 3 1 2 2 4 4 3 3 3 4 3 2 3 3 4 3 2
3 3 3 3 4 4 3 3 2 2 2 2 1 1 1 2 2 2 1 2 2 2 2 2 3 4 3 3 2 3 5 3 2 2 2 2 2 1 1 2 3 4 4
1 2 2 2 2 2 3 2 2 3 2 2 1 1 1 1 2 2 1 1 1 2 2 2 2 3 2 2 2 2 3 2 1 1 1 2 2 2 2 2 2 3 4
2 2 2 1 1 2 3 2 2 2 2 2 1 1 1 1 2 3 2 2 1 1 1 2 2 2 2 1 2 2 2 1 0 1 2 3 2 2 1 0 0 1 1
3 2 2 2 1 1 2 2 2 2 2 2 1 1 1 1 2 2 2 2 2 1 1 2 3 3 2 2 3 2 2 0 1 2 2 2 0 0 1 1 1 1 0
2 2 2 2 2 2 1 1 2 2 2 2 2 2 1 1 2 1 1 0 0 0 1 2 2 2 2 2 2 2 2 2 2 2 1 1 1 0 1 1 1 2 2
2 2 2 2 2 3 2 1 2 2 2 2 2 2 0 1 2 2 2 2 3 4 4 2 2 2 1 1 2 2 2 2 2 2 1 1 1 1 1 0 1 2 2
2 1 1 2 2 3 3 3 1 1 3 2 2 2 2 2 3 3 3 3 4 5 3 2 1 1 2 1 1 1 2 2 2 2 2 2 1 1 0 0 1 1 1
1 1 2 2 2 2 2 2 2 2 0 2 2 2 2 2 3 3 3 4 3 3 2 1 1 1 1 1 1 1 2 2 2 2 2 2 2 1 1 1 1 0 1
1 1 1 1 1 2 2 2 2 1 1 0 1 2 2 2 3 4 3 2 1 1 0 1 1 1 1 1 1 1 1 1 2 1 2 2 1 1 1 1 1 1 0
1 2 2 2 1 1 1 2 2 1 1 1 0 1 0 2 1 1 1 1 1 1 0 0 0 0 0 0 1 1 1 1 2 1 1 1 1 1 1 1 1 1 0
1 1 2 2 1 1 1 1 2 2 1 1 1 1 2 2 1 1 1 1 1 1 1 1 0 0 0 1 1 1 1 1 1 1 1 1 1 1 1 1 1 0 0
2 1 2 2 2 1 1 1 1 1 1 1 1 1 1 1 1 1 1 1 1 1 1 1 1 1 0 1 0 0 1 1 1 1 1 1 1 1 1 1 1 1 1
2 2 1 1 1 2 1 1 1 1 1 1 1 0 0 1 1 1 1 1 1 0 0 0 0 0 1 1 1 1 1 2 2 2 1 1 1 1 1 1 1 1 1
2 2 2 1 1 1 1 1 1 1 1 1 1 1 1 1 1 1 1 1 1 1 0 0 1 1 1 1 1 2 2 3 2 1 1 1 1 1 1 1 1 1 1
2 2 2 2 2 2 1 1 1 1 1 1 1 1 1 1 1 1 1 1 1 1 1 1 0 1 1 2 2 3 4 4 2 1 1 0 1 1 1 1 1 2 2
2 2 2 2 2 2 2 2 2 2 1 2 1 1 1 1 1 1 1 1 1 1 1 1 1 1 2 2 3 3 4 3 2 2 1 1 1 1 1 1 2 2 2
Wind_Direction
180 183 181 190 189 186 189 202 207 199 191 194 204 203 199 198 193 189 206 200 200 238 249 232 259 260 241 230 183 161 176 168 216 269 262 263 252 252 249 225 227 221 223
187 185 189 192 191 191 205 214 207 199 204 203 202 202 208 209 206 200 213 214 214 228 242 240 259 255 260 242 202 205 207 198 194 244 270 259 249 242 246 237 237 233 236
184 183 192 197 196 202 212 215 209 200 203 199 187 202 218 218 217 217 208 215 219 224 226 224 239 213 241 243 228 223 226 223 195 211 251 257 259 250 276 271 263 254 253
186 189 197 206 207 206 204 199 203 197 195 198 205 212 217 218 221 225 209 209 220 230 229 227 228 211 223 226 231 235 221 214 218 220 252 264 254 258 193 245 273 268 267
183 193 203 203 201 195 195 197 202 200 209 208 207 217 221 219 225 211 194 207 214 227 241 238 235 228 233 231 237 219 199 196 200 221 252 269 247 229 234 225 240 279 282
186 202 202 192 189 192 196 193 194 203 211 206 206 210 216 234 242 209 188 204 214 224 240 248 246 240 255 253 249 220 188 188 200 210 235 245 244 230 229 223 220 207 277
194 201 196 191 195 202 198 187 199 211 201 204 211 209 225 248 240 207 194 193 216 232 236 246 259 269 264 253 261 257 244 238 211 200 220 238 236 227 212 225 215 207 231
194 203 195 189 195 192 179 188 209 210 205 211 218 219 226 253 237 210 201 205 218 232 235 233 240 258 265 245 247 266 269 267 251 234 228 237 237 220 209 210 204 207 256
194 199 195 185 185 181 185 200 206 197 206 213 206 214 226 260 259 228 198 208 232 245 248 245 240 243 272 268 225 253 279 286 283 271 263 262 261 241 201 159 159 160 236
213 207 198 185 181 191 202 205 202 191 200 203 209 223 224 252 273 255 202 199 223 252 266 266 261 260 263 254 208 224 259 271 284 293 290 293 288 266 223 195 189 190 201
220 201 193 189 184 188 190 181 170 175 173 179 193 235 240 277 303 300 262 205 209 231 254 270 275 275 268 265 242 232 256 265 260 259 274 290 308 290 241 224 203 195 201
151 151 171 179 179 166 161 166 164 164 165 180 197 258 302 304 336 333 334 285 223 209 249 268 275 284 279 295 280 277 293 313 290 267 274 278 281 274 255 231 220 212 214
126 140 155 144 146 145 149 154 145 147 160 179 177 217 288 317 331 338 331 324 314 250 269 310 327 334 330 329 329 338 345 9 292 254 258 263 255 245 225 187 66 169 291
149 164 162 152 137 119 128 140 140 149 156 165 177 220 280 324 329 328 317 307 309 316 331 360 16 17 18 13 10 355 341 314 264 261 276 284 303 224 193 175 163 155 108
144 153 159 160 150 134 122 133 148 167 165 168 188 194 205 257 296 336 34 350 273 111 78 49 37 23 14 13 6 353 350 357 335 317 326 328 325 229 240 199 162 150 160
144 158 173 171 162 151 141 94 44 70 90 113 110 116 209 343 349 3 13 30 66 89 90 69 48 31 13 4 357 354 355 343 330 328 335 342 330 297 288 290 164 167 196
132 162 170 168 168 164 160 156 149 16 28 29 47 70 59 29 21 17 37 67 77 98 88 70 45 17 360 0 5 358 347 338 348 1 3 357 352 360 20 314 235 203 231
135 135 137 165 173 166 165 171 174 171 196 329 344 18 43 40 35 37 62 72 61 72 66 63 20 3 1 356 354 349 349 355 5 9 4 3 11 28 35 25 13 297 233
130 149 145 136 135 149 153 152 157 162 164 208 2 354 8 34 47 54 81 93 124 120 58 29 2 352 359 351 343 350 0 1 6 19 6 359 7 37 23 3 359 352 0
135 120 123 120 109 102 122 141 158 167 169 175 235 270 347 65 59 37 59 109 147 157 173 268 293 327 349 2 9 16 17 13 11 6 350 357 2 16 359 352 5 10 337
151 147 130 121 130 137 146 166 183 185 189 204 238 250 170 163 181 199 192 195 195 194 202 222 253 309 341 19 35 17 5 355 0 341 335 343 354 357 353 357 344 346 354
141 143 146 145 143 144 157 178 179 174 183 187 237 283 164 151 176 187 200 213 222 218 205 199 214 224 232 214 218 249 297 310 319 316 313 319 314 325 342 350 344 347 345
142 140 142 147 143 138 125 132 155 164 171 180 197 220 197 181 204 218 222 225 217 203 30 109 150 289 12 338 302 245 245 268 272 277 289 294 288 281 280 291 300 309 321
151 155 156 157 148 150 149 153 163 166 167 185 205 216 214 216 227 233 234 246 231 222 179 124 197 240 255 321 308 295 278 274 278 269 274 267 278 274 271 283 286 285 292
155 161 166 174 178 179 177 182 185 186 196 206 212 219 226 229 229 231 234 232 224 225 231 237 253 245 252 279 294 294 294 288 282 286 262 247 262 269 263 259 262 267 268
165 172 178 183 189 194 192 196 202 203 216 226 223 215 218 226 236 237 230 219 224 232 243 255 253 255 271 276 281 286 293 288 278 284 260 163 245 269 274 264 261 257 257
Height
1509 1510 1511 1511 1512 1513 1513 1514 1514 1514 1515 1515 1516 1516 1516 1516 1516 1516 1516 1516 1515 1515 1515 1515 1515 1514 1514 1514 1514 1514 1514 1513 1512 1511 1511 1511 1511 1511 1511 1512 1512 1512 1512
1507 1508 1508 1509 1510 1510 1510 1511 1511 1512 1512 1513 1513 1513 1514 1514 1514 1514 1514 1514 1513 1513 1513 1513 1512 1512 1512 1512 1512 1511 1511 1511 1510 1509 1508 1509 1509 1509 1509 1509 1509 1509 1510
1504 1505 1505 1506 1507 1507 1507 1508 1508 1509 1509 1510 1510 1510 1511 1511 1511 1511 1511 1511 1511 1511 1511 1510 1510 1510 1509 1509 1509 1509 1509 1508 1508 1507 1506 1506 1506 1506 1506 1506 1506 1506 1507
1501 1502 1502 1503 1503 1504 1504 1505 1505 1506 1506 1507 1507 1507 1508 1508 1508 1509 1508 1508 1508 1508 1508 1508 1507 1507 1506 1507 1506 1506 1506 1505 1505 1504 1503 1503 1503 1503 1503 1503 1503 1503 1503
1498 1498 1499 1500 1500 1501 1501 1502 1502 1503 1503 1504 1504 1504 1505 1505 1505 1505 1505 1505 1505 1505 1505 1505 1504 1504 1504 1504 1503 1503 1503 1502 1502 1501 1501 1500 1500 1500 1500 1500 1500 1500 1500
1494 1495 1495 1496 1496 1497 1498 1498 1499 1499 1500 1500 1500 1501 1501 1501 1502 1502 1502 1502 1502 1502 1501 1501 1501 1501 1501 1501 1500 1500 1500 1499 1498 1498 1497 1497 1496 1496 1497 1497 1497 1497 1496
1491 1491 1492 1492 1492 1493 1494 1495 1495 1495 1496 1496 1497 1497 1497 1498 1498 1498 1499 1498 1498 1498 1497 1497 1497 1497 1497 1497 1497 1497 1496 1496 1496 1495 1494 1493 1493 1493 1493 1493 1493 1493 1493
1487 1488 1488 1489 1489 1489 1490 1491 1491 1492 1492 1492 1493 1493 1493 1494 1494 1495 1495 1495 1494 1494 1494 1493 1493 1493 1493 1493 1493 1492 1492 1492 1492 1491 1491 1490 1489 1489 1489 1490 1489 1490 1490
1484 1484 1484 1485 1485 1486 1486 1487 1487 1488 1488 1489 1489 1490 1490 1490 1490 1491 1491 1491 1490 1490 1490 1490 1490 1489 1489 1489 1489 1488 1488 1488 1488 1488 1487 1486 1486 1486 1486 1486 1486 1486 1486
1480 1481 1481 1482 1482 1482 1482 1483 1484 1484 1485 1486 1486 1486 1486 1486 1487 1487 1487 1487 1486 1486 1486 1486 1486 1486 1485 1485 1484 1484 1484 1483 1483 1483 1483 1482 1482 1482 1482 1482 1482 1482 1482
1477 1478 1478 1478 1478 1478 1479 1480 1480 1481 1482 1482 1482 1482 1482 1483 1483 1483 1483 1483 1482 1482 1482 1482 1482 1482 1481 1481 1481 1480 1480 1480 1479 1479 1478 1478 1478 1478 1478 1478 1478 1479 1479
1475 1475 1475 1475 1475 1475 1476 1476 1477 1478 1478 1479 1479 1479 1479 1479 1479 1479 1479 1479 1479 1478 1478 1478 1478 1478 1477 1477 1476 1476 1476 1475 1475 1474 1474 1473 1473 1473 1473 1474 1475 1475 1476
1472 1472 1472 1472 1472 1472 1473 1473 1474 1474 1475 1475 1475 1475 1475 1475 1476 1476 1475 1475 1475 1474 1474 1474 1474 1474 1473 1472 1472 1472 1471 1471 1470 1470 1469 1469 1469 1469 1470 1470 1471 1471 1472
1470 1470 1470 1470 1470 1470 1470 1471 1471 1471 1471 1472 1472 1472 1472 1472 1472 1472 1472 1472 1472 1471 1471 1471 1470 1470 1469 1469 1468 1468 1468 1467 1467 1466 1465 1465 1465 1466 1466 1467 1467 1468 1468
1467 1467 1467 1467 1467 1467 1468 1468 1468 1469 1469 1469 1470 1470 1470 1469 1469 1470 1469 1469 1469 1469 1468 1467 1467 1466 1466 1465 1465 1465 1464 1464 1464 1463 1462 1462 1462 1462 1463 1463 1464 1464 1464
1465 1464 1464 1465 1465 1465 1465 1466 1466 1467 1467 1467 1468 1468 1468 1468 1467 1467 1467 1467 1466 1466 1466 1465 1464 1464 1463 1463 1462 1462 1462 1461 1461 1461 1460 1460 1459 1459 1459 1460 1460 1461 1461
1463 1462 1462 1462 1462 1463 1463 1463 1464 1465 1465 1465 1465 1465 1466 1465 1465 1465 1464 1464 1464 1464 1463 1462 1462 1462 1461 1461 1460 1460 1460 1459 1459 1458 1458 1457 1457 1457 1457 1457 1457 1457 1458
1461 1461 1460 1460 1460 1461 1461 1462 1462 1462 1463 1463 1463 1463 1463 1463 1463 1462 1462 1462 1462 1461 1460 1460 1460 1460 1459 1459 1458 1458 1457 1457 1456 1456 1455 1455 1455 1454 1454 1454 1454 1455 1455
1459 1459 1459 1459 1459 1459 1459 1460 1460 1461 1461 1460 1461 1461 1461 1461 1461 1461 1460 1460 1459 1458 1458 1458 1458 1458 1457 1457 1456 1456 1455 1455 1455 1454 1454 1453 1453 1452 1452 1452 1452 1452 1453
1457 1457 1457 1457 1457 1457 1458 1458 1458 1458 1458 1458 1458 1459 1459 1459 1458 1458 1458 1458 1457 1457 1457 1457 1456 1456 1455 1455 1455 1454 1454 1453 1453 1452 1452 1451 1451 1451 1450 1450 1450 1450 1450
1455 1455 1455 1455 1455 1455 1456 1456 1456 1456 1456 1456 1456 1456 1457 1456 1456 1456 1456 1455 1455 1454 1455 1455 1454 1454 1454 1453 1453 1452 1452 1452 1451 1451 1450 1450 1449 1449 1449 1449 1448 1448 1448
1453 1453 1453 1453 1453 1453 1454 1454 1454 1454 1454 1454 1454 1454 1455 1454 1454 1454 1453 1453 1453 1453 1453 1452 1452 1451 1451 1451 1451 1450 1450 1449 1449 1448 1448 1448 1447 1447 1447 1447 1446 1446 1446
1451 1451 1451 1451 1451 1451 1451 1451 1452 1452 1452 1452 1452 1452 1452 1452 1452 1452 1451 1451 1450 1450 1450 1450 1449 1449 1449 1448 1448 1448 1447 1447 1447 1446 1446 1445 1445 1445 1445 1444 1444 1444 1444
1449 1449 1449 1449 1449 1449 1449 1449 1449 1450 1450 1450 1450 1450 1450 1450 1450 1449 1449 1448 1448 1448 1447 1447 1447 1446 1446 1446 1445 1445 1445 1444 1444 1444 1443 1443 1442 1442 1442 1442 1442 1442 1441
1446 1446 1446 1446 1447 1447 1446 1447 1447 1447 1447 1447 1447 1447 1447 1447 1446 1446 1446 1446 1445 1445 1444 1444 1444 1443 1443 1442 1442 1442 1442 1441 1441 1441 1441 1440 1440 1439 1439 1439 1439 1439 1439
1444 1444 1444 1444 1444 1444 1444 1444 1444 1444 1444 1444 1444 1444 1444 1444 1444 1443 1443 1442 1442 1442 1441 1441 1441 1440 1440 1439 1439 1439 1438 1438 1438 1438 1438 1437 1437 1436 1436 1436 1436 1436 1435